Date,TemperatureHighF,TemperatureAvgF,TemperatureLowF,DewpointHighF,DewpointAvgF,DewpointLowF,HumidityHigh,HumidityAvg,HumidityLow,PressureMaxIn,PressureMinIn,WindSpeedMaxMPH,WindSpeedAvgMPH,GustSpeedMaxMPH,PrecipitationSumIn
2013-7-1,78,77,73,76,74,71,95,92,89,30.07,29.87,20,10,34,0.39
2013-7-2,82,79,75,78,76,73,94,90,88,30.21,30.06,15,7,22,0.08
2013-7-3,82,80,76,79,77,73,94,90,87,30.27,30.18,18,6,25,0.02
2013-7-4,84,81,78,78,76,75,92,86,79,30.29,30.23,11,6,17,0.00
2013-7-5,83,81,79,78,76,75,92,86,80,30.30,30.21,12,6,18,0.00
2013-7-6,83,81,79,76,75,74,88,82,78,30.27,30.17,12,5,16,0.00
2013-7-7,83,80,77,75,74,72,87,80,73,30.21,30.11,11,5,17,0.00
2013-7-8,83,80,77,76,75,73,90,84,78,30.20,30.12,16,6,19,0.00
2013-7-9,84,80,76,78,75,73,93,86,76,30.20,30.11,16,5,24,0.00
2013-7-10,84,81,78,77,76,75,91,85,78,30.14,30.01,17,7,22,0.00
2013-7-11,82,79,77,77,75,73,93,88,82,30.02,29.90,18,8,27,0.03
2013-7-12,80,76,73,77,74,71,95,92,88,29.99,29.89,14,4,21,0.86
2013-7-13,83,79,74,77,75,72,96,88,76,30.18,29.98,23,7,26,0.49
2013-7-14,84,81,78,78,77,74,90,86,79,30.28,30.18,13,6,17,0.10
2013-7-15,84,81,76,78,76,75,95,85,77,30.29,30.24,11,4,14,0.00
2013-7-16,87,82,75,77,76,74,95,82,66,30.27,30.17,13,4,15,0.00
2013-7-17,88,82,77,79,76,73,90,82,71,30.19,30.10,7,3,12,0.00
2013-7-18,86,82,76,78,76,73,93,81,67,30.14,30.07,12,4,18,0.00
2013-7-19,85,82,79,78,77,75,89,84,80,30.14,30.02,18,8,23,0.00
2013-7-20,84,81,79,78,76,74,90,83,75,30.07,29.98,21,10,32,0.00
2013-7-21,81,79,77,77,75,73,93,88,80,30.03,29.94,13,7,20,0.00
2013-7-22,82,79,76,77,76,74,95,90,81,29.97,29.85,18,6,26,0.00
2013-7-23,80,78,76,76,75,74,94,90,84,29.89,29.75,16,7,21,0.00
2013-7-24,79,77,76,75,75,73,94,92,84,29.79,29.74,8,4,11,0.00